Dewpoint
59 59 59 58 59 58 58 58 57 56 56 56 57 57 57 57 57 56 55 54 54 54 52 51 50 52 39 23 21 25 30 31 32 28 27 26 22 23 22 22 22 22 23 24 25 28 26
58 58 58 58 58 58 58 57 58 57 57 57 57 57 57 57 57 57 56 54 53 52 51 50 51 48 32 24 24 26 27 28 29 28 25 27 24 25 22 22 22 25 24 24 25 27 28
58 59 58 58 58 58 58 56 58 58 57 56 56 57 57 56 56 56 56 55 53 53 51 50 51 37 26 24 26 27 26 28 29 28 23 27 28 27 26 23 24 21 17 19 20 26 27
59 58 58 57 57 58 57 57 58 58 57 56 56 56 56 56 56 56 55 53 51 49 48 49 46 29 24 26 26 27 26 27 29 27 25 25 25 26 25 24 23 19 19 14 21 26 27
58 57 57 57 57 57 57 57 58 57 57 56 56 55 56 56 55 54 53 52 51 47 48 48 31 27 22 25 25 28 26 24 26 28 28 22 27 26 26 22 19 21 14 16 16 25 25
57 57 56 56 56 57 57 58 58 57 57 56 56 56 55 55 54 53 52 52 45 39 40 33 26 22 26 23 26 27 27 26 24 25 29 27 27 23 23 19 11 11 13 15 15 19 24
55 55 55 55 56 56 57 58 57 57 57 56 56 56 55 55 54 52 43 35 31 32 31 25 28 26 27 28 28 29 26 25 26 27 24 27 21 17 22 21 18 17 16 16 18 20 20
55 54 54 54 55 55 56 57 57 56 56 56 56 55 55 55 53 47 40 31 36 39 24 31 27 26 25 27 25 29 27 24 24 22 26 24 20 23 22 20 18 18 17 17 19 22 22
54 53 53 53 54 54 54 56 56 56 56 56 55 55 55 53 50 41 39 39 44 44 25 29 28 28 27 27 25 29 26 24 21 21 23 21 21 21 19 19 18 19 18 18 18 22 23
53 52 52 53 53 53 56 56 56 56 56 55 55 55 55 52 39 43 36 43 44 45 23 24 26 29 28 29 26 30 26 24 24 20 23 23 24 21 20 19 19 18 21 21 21 20 16
55 52 52 52 52 56 56 56 56 56 56 55 55 55 54 48 39 31 39 45 46 41 13 28 30 33 31 27 28 29 27 24 21 24 23 21 22 21 20 21 21 20 22 21 20 20 23
53 51 52 53 55 56 55 55 55 55 55 55 55 54 54 44 45 44 46 47 45 28 15 26 30 29 29 31 29 31 27 27 27 24 25 24 25 23 23 23 22 21 22 26 27 25 22
50 50 52 55 55 53 53 53 54 54 55 54 54 54 52 47 40 46 49 45 28 23 26 26 26 30 29 28 28 29 27 26 23 22 22 27 26 24 22 21 21 22 22 21 21 21 19
49 49 55 54 53 52 52 52 53 53 53 53 54 52 51 47 47 48 47 35 21 21 30 30 29 29 27 29 28 28 27 25 27 25 23 22 21 26 23 23 22 22 23 22 18 17 19
52 54 54 52 52 51 51 51 51 52 52 53 52 48 47 51 48 48 37 27 18 24 30 28 28 27 27 29 27 26 26 25 25 27 22 23 23 24 22 22 25 24 23 24 22 23 22
54 53 52 52 51 51 50 50 51 52 52 53 48 47 44 50 49 44 34 28 26 34 30 28 26 27 25 27 25 25 25 26 26 27 27 25 22 24 21 21 21 24 24 22 23 21 21
50 50 50 49 49 49 49 49 50 50 51 52 47 41 41 49 45 37 27 29 31 35 30 29 28 27 27 25 26 25 25 26 28 26 27 26 25 23 22 21 22 21 21 22 24 30 25
47 47 46 46 45 45 45 45 46 47 49 51 46 37 43 46 37 35 29 30 35 31 29 28 29 29 28 28 27 27 25 25 27 25 25 25 25 23 24 27 26 25 22 22 22 26 30
43 44 43 43 43 43 43 43 43 44 45 48 44 43 48 42 35 31 33 34 34 32 30 29 28 29 29 28 25 28 28 29 26 25 26 26 25 23 24 27 30 24 24 24 29 30 29
43 42 42 42 42 42 41 42 42 42 43 47 45 40 41 43 39 35 35 35 34 37 34 31 30 30 30 29 29 29 30 30 29 26 28 27 28 27 26 25 29 29 30 25 28 29 28
41 41 41 40 40 40 40 40 41 41 42 47 47 43 43 37 37 39 39 38 37 36 37 34 33 30 30 29 30 30 31 31 32 30 29 28 28 27 28 27 26 26 27 28 31 32 30
36 36 36 38 39 39 38 38 39 39 42 47 43 42 41 41 42 40 39 38 38 38 37 36 35 35 34 32 32 32 33 33 34 33 27 32 32 34 32 34 34 33 33 32 32 31 32
37 37 37 36 36 35 35 36 37 37 39 37 40 40 39 38 39 39 38 38 38 39 39 38 37 36 36 35 35 39 39 37 37 36 31 33 33 31 28 32 32 29 32 32 31 32 31
37 37 37 38 37 37 36 35 35 36 39 37 37 37 33 30 35 36 36 36 36 38 36 38 41 39 39 43 43 41 40 38 37 36 36 35 33 32 29 31 23 27 24 26 30 26 25
34 35 35 36 34 36 36 37 37 36 36 38 37 35 32 25 27 22 26 27 31 33 33 34 36 39 41 41 38 35 35 35 37 37 38 37 36 31 27 27 27 28 25 25 26 24 22
33 33 33 33 33 33 34 35 36 37 36 37 36 39 36 29 23 28 24 24 24 27 28 34 33 36 41 39 36 30 28 30 30 29 32 36 36 33 30 25 22 21 20 22 25 23 21
32 32 31 32 33 34 33 35 35 36 36 36 35 38 32 27 26 26 25 26 27 27 25 29 32 33 34 34 31 30 29 33 28 29 28 30 32 29 29 27 28 17 19 23 21 18 18
31 31 30 29 32 34 31 31 33 34 36 35 35 36 33 29 27 27 26 25 27 26 23 22 21 23 32 30 28 28 28 29 29 28 27 26 27 26 29 26 23 14 19 19 13 15 15
31 31 31 30 31 30 32 33 34 32 30 32 34 36 35 31 27 27 26 28 28 31 30 28 23 24 27 26 27 29 25 27 23 20 32 24 20 20 17 13 12 13 12 15 16 14 14
Wind_Speed
18 18 18 19 21 21 22 21 20 18 16 13 11 10 9 8 7 7 7 7 7 7 7 8 9 10 1 0 2 2 7 7 2 2 3 1 1 1 1 1 0 1 2 3 3 4 5
19 19 19 20 20 21 22 23 21 20 18 15 13 12 10 9 8 8 8 8 8 8 8 8 9 8 0 2 1 3 5 3 5 4 3 3 2 2 3 1 1 1 4 6 4 5 4
18 18 19 20 21 21 22 23 22 20 20 19 16 14 13 12 11 10 9 9 9 9 8 8 8 2 1 3 1 3 4 1 2 2 2 1 1 1 2 0 1 2 6 7 4 4 4
18 19 20 21 21 21 21 23 23 22 21 20 19 16 15 13 12 10 9 10 9 8 8 6 5 1 3 1 0 1 3 1 2 2 2 1 1 4 2 1 4 2 2 5 2 4 1
18 19 20 21 22 21 22 23 22 22 22 23 21 19 16 14 11 10 10 10 9 7 6 5 1 1 3 0 1 1 1 1 3 0 1 1 2 2 2 1 2 5 5 4 7 6 1
18 19 20 21 21 21 23 22 23 23 23 23 23 21 18 16 12 11 11 5 1 3 1 1 1 2 2 2 1 1 0 1 1 1 2 2 4 1 2 2 5 4 5 5 10 2 5
17 18 19 20 21 21 24 24 24 24 24 25 25 23 21 18 13 11 2 2 2 2 0 4 1 2 2 2 0 1 1 1 1 3 3 1 1 8 6 7 3 3 5 10 10 6 6
17 17 18 19 20 21 22 24 24 24 24 25 25 25 23 20 12 6 4 5 2 1 5 3 3 3 2 1 2 3 1 2 1 3 3 1 8 4 4 5 4 5 7 12 11 3 2
16 16 18 19 20 21 22 23 24 24 25 25 26 27 26 23 7 6 8 4 0 2 2 3 3 3 2 2 3 3 1 2 3 3 7 7 2 7 5 5 6 7 10 8 8 7 6
16 16 18 19 19 21 22 23 24 26 26 26 26 27 27 22 3 1 3 1 1 1 2 3 2 2 2 2 3 1 1 1 2 4 4 7 1 7 5 7 9 11 7 5 4 5 6
13 16 17 18 19 20 21 23 25 26 27 28 27 26 23 11 1 3 1 2 0 0 6 3 3 1 2 3 1 2 1 2 4 3 3 5 5 7 8 8 11 5 2 2 2 4 5
11 15 17 17 19 20 22 24 26 27 28 29 29 27 19 3 3 1 1 1 1 2 7 3 2 2 2 3 2 2 1 2 1 1 3 8 1 5 6 3 7 3 1 3 4 2 5
14 14 15 16 20 22 24 25 27 29 30 31 32 27 5 0 2 1 0 1 3 5 1 3 5 4 3 4 3 6 4 5 6 2 5 2 6 2 3 4 1 3 1 6 5 3 10
13 12 13 17 20 21 23 25 27 29 32 34 35 15 3 2 0 0 1 2 6 4 6 1 2 2 5 4 4 4 2 5 9 4 3 6 8 10 7 7 5 9 7 6 8 9 14
10 14 16 16 18 21 23 25 27 30 32 34 24 8 3 1 0 2 2 5 8 7 2 3 0 4 4 4 4 5 7 7 7 16 11 7 7 2 5 2 4 4 11 2 4 0 9
16 15 16 17 18 20 23 25 27 29 32 30 13 9 5 1 2 3 2 7 7 5 3 3 7 8 9 6 6 6 6 4 5 11 3 4 10 5 3 2 1 5 5 3 2 7 11
22 21 19 21 22 23 24 26 28 29 34 24 5 8 2 3 2 2 7 9 7 7 6 8 8 10 10 7 10 6 6 5 6 5 8 5 7 4 5 11 15 6 6 5 3 5 8
20 20 21 22 22 23 24 25 28 30 33 12 5 7 3 3 5 1 7 5 3 5 3 7 5 9 9 9 7 10 12 12 5 8 6 5 4 14 17 4 4 5 14 17 15 9 9
19 20 20 21 21 23 25 26 28 29 25 10 8 6 3 1 6 7 7 7 5 4 7 5 7 9 6 7 6 12 7 3 7 8 5 6 4 9 11 1 1 6 8 10 3 2 24
20 20 20 21 22 23 24 25 27 29 26 10 4 6 5 1 1 5 9 13 12 4 7 7 6 5 4 8 12 7 6 5 7 8 9 8 13 20 30 17 3 7 11 14 15 13 16
22 22 22 23 23 24 24 26 28 30 32 5 4 6 3 7 9 7 3 6 6 6 5 3 4 10 11 9 11 20 16 13 7 7 7 9 29 20 30 23 16 23 25 21 24 28 22
20 19 19 20 21 21 23 25 26 30 31 3 5 5 7 7 10 12 9 15 21 20 12 16 21 19 21 25 21 22 12 6 12 6 9 5 9 10 31 22 24 31 42 32 33 36 35
20 20 21 20 20 20 21 22 24 26 18 6 7 6 5 6 7 12 16 18 12 14 15 26 25 22 22 27 25 21 19 21 17 16 12 9 9 8 26 18 18 25 35 35 25 24 23
17 17 17 19 20 20 21 21 21 21 18 4 5 6 4 9 9 10 17 25 29 22 16 23 22 8 3 8 12 9 14 19 21 25 23 19 17 12 19 18 23 13 1 5 14 6 8
20 19 18 18 18 18 19 19 19 17 18 8 4 4 5 11 11 16 16 18 22 20 22 22 26 22 25 18 16 15 14 16 24 35 33 33 29 17 16 22 20 12 5 5 9 7 3
19 19 19 20 20 19 17 17 17 16 17 8 7 4 4 8 6 5 17 15 16 16 16 10 19 20 12 17 18 19 20 9 7 5 1 22 30 27 15 17 25 6 2 4 1 12 4
20 20 21 20 21 20 18 17 16 15 15 10 5 4 4 8 11 4 4 3 7 10 13 14 12 11 16 4 8 16 26 7 14 9 6 5 7 30 31 24 9 2 5 7 9 7 11
22 22 22 21 19 21 19 18 16 15 15 10 7 6 4 7 15 15 11 15 10 6 9 13 16 6 8 11 7 9 5 3 6 8 6 9 10 13 12 13 20 17 2 2 3 12 11
23 22 22 23 20 19 21 18 17 16 12 10 9 6 9 10 13 19 23 26 28 24 17 8 12 17 6 7 12 7 20 10 29 23 4 10 4 6 6 2 4 9 12 13 11 11 8
Wind_Direction
28 26 22 19 16 19 19 16 17 19 16 6 353 341 333 323 321 306 293 282 283 291 305 314 314 314 260 329 269 302 339 346 12 68 61 136 115 135 168 174 10 219 242 228 234 219 248
25 23 18 15 15 16 16 12 11 14 13 8 357 348 337 325 318 307 299 297 291 293 301 309 309 316 196 258 178 1 343 354 24 54 47 44 155 147 124 199 208 227 271 267 258 234 235
19 15 14 13 13 13 12 8 4 9 12 8 359 350 340 330 320 307 300 301 294 293 300 308 307 330 209 230 142 350 13 38 16 49 92 76 85 133 130 260 1 334 321 316 249 237 238
13 14 12 9 10 8 8 2 0 3 6 6 1 351 343 333 321 306 291 291 289 286 294 297 320 293 246 167 41 20 357 126 15 23 80 114 31 99 60 78 20 5 33 335 238 188 298
12 12 9 7 7 6 6 1 358 359 1 1 358 352 343 335 326 311 297 292 282 274 270 288 275 36 266 22 238 263 60 213 322 3 11 76 82 94 69 80 344 16 303 301 308 207 207
10 7 6 5 4 2 4 358 356 357 360 357 353 349 342 338 332 322 311 265 134 319 78 177 54 331 261 224 225 276 113 89 104 38 82 73 58 124 73 149 270 282 295 270 267 280 233
6 4 4 3 2 1 360 356 355 356 357 354 352 347 343 337 332 339 66 77 20 290 214 224 218 263 257 304 339 228 32 98 109 75 197 38 253 234 233 202 196 222 251 267 263 273 284
6 5 4 2 1 1 358 353 354 356 355 352 348 347 345 341 339 10 68 77 119 226 299 241 242 260 239 145 285 230 337 190 158 218 149 325 245 209 153 164 199 226 267 273 287 241 248
9 6 3 1 360 1 353 353 353 353 352 350 348 346 346 343 340 36 66 86 360 176 267 286 219 235 227 165 254 228 179 160 200 224 209 221 209 155 177 199 229 241 238 252 264 328 271
10 6 1 358 358 356 355 353 352 352 349 347 346 344 344 339 78 6 57 355 356 208 345 224 226 230 165 136 266 175 95 181 221 241 213 249 169 195 206 238 200 276 220 240 268 325 282
2 2 359 357 357 359 355 354 352 351 347 345 343 342 342 12 339 51 306 329 323 130 309 165 199 142 155 209 329 211 7 98 229 221 164 262 194 208 227 234 180 239 148 242 233 253 322
357 358 355 355 3 358 356 355 352 349 346 343 340 338 338 8 45 66 335 21 63 13 253 215 179 211 241 202 229 138 167 80 120 240 235 248 220 213 219 173 190 129 337 46 63 113 266
352 355 352 9 4 357 355 353 351 347 343 341 337 334 340 52 310 268 85 97 334 215 24 210 222 190 225 229 228 191 198 208 208 239 253 280 227 204 177 185 130 155 23 305 293 238 258
350 351 18 16 360 1 0 358 354 350 344 339 334 334 314 263 245 114 80 56 236 247 240 242 179 203 240 188 237 203 231 256 225 202 229 256 278 192 184 208 203 186 189 209 279 270 281
20 29 22 13 11 6 3 0 356 351 343 338 333 338 343 358 121 29 91 214 228 218 216 196 209 240 252 230 223 208 228 238 229 187 201 204 257 165 186 161 174 178 208 190 256 276 292
42 39 32 22 17 12 6 2 357 351 343 338 336 333 307 2 37 48 167 236 243 220 179 180 214 204 230 213 204 200 215 216 231 203 179 223 280 216 156 129 63 199 162 195 190 261 263
39 37 34 29 20 17 10 2 357 355 346 337 9 337 329 1 43 77 229 235 270 249 199 208 231 240 226 218 215 211 234 249 218 183 183 176 216 255 141 202 207 187 214 212 225 195 245
36 33 29 29 20 17 13 5 0 356 351 21 8 316 346 353 301 248 232 223 270 260 214 253 242 234 223 208 233 233 244 220 175 161 192 211 201 251 240 233 216 205 223 204 224 237 229
27 24 24 22 22 15 10 7 2 358 4 321 328 271 329 115 246 248 273 276 263 246 227 222 240 221 205 213 245 224 223 218 176 184 200 177 244 296 297 208 191 221 209 210 216 198 246
29 24 22 19 19 15 11 6 3 354 351 331 297 301 290 175 216 248 281 279 266 253 250 232 250 212 207 237 231 256 229 241 201 210 198 181 240 242 252 257 165 220 218 208 205 230 241
23 22 20 18 15 12 9 6 3 354 344 313 216 251 278 273 280 251 271 289 271 280 239 251 263 230 227 251 243 255 262 265 237 232 215 213 253 234 250 259 266 270 264 243 229 232 240
18 17 14 13 10 11 11 8 5 0 342 277 289 327 345 300 299 279 254 266 258 266 253 259 259 259 256 255 245 258 234 218 244 206 193 209 257 241 263 262 263 267 261 257 248 249 244
14 9 8 6 5 4 5 5 5 7 15 5 350 347 334 270 274 265 264 261 275 310 259 251 254 264 263 247 243 260 261 262 249 237 222 202 211 220 258 265 258 257 254 246 242 236 232
4 2 1 2 1 360 359 359 4 3 13 358 341 313 300 281 298 300 326 318 310 308 314 316 309 276 299 337 316 263 246 248 241 240 227 234 221 230 261 267 248 263 318 257 237 236 149
352 352 350 348 348 350 351 353 356 356 354 354 315 324 308 291 331 314 326 328 318 322 313 307 292 274 294 294 278 268 253 253 243 241 234 228 237 254 248 239 261 275 208 187 198 240 98
346 344 341 340 336 334 341 342 345 345 341 355 314 316 293 303 262 315 303 291 290 309 311 287 320 309 299 270 261 258 257 234 238 257 315 229 227 233 238 253 259 269 69 357 229 253 107
341 338 335 339 334 334 332 333 331 330 329 331 298 340 309 277 263 248 273 319 300 304 290 300 328 331 330 296 289 273 260 242 238 218 212 200 206 228 238 250 242 37 350 325 210 288 113
336 334 331 328 327 328 325 324 319 315 317 321 282 279 255 264 279 271 279 283 280 261 268 309 326 332 276 262 244 238 279 287 274 274 270 243 242 242 234 249 267 357 11 176 37 37 68
330 327 325 321 325 320 323 324 322 317 307 304 287 245 261 250 264 299 275 267 256 255 271 265 260 285 283 309 296 334 305 295 294 296 294 282 4 343 31 71 48 19 63 53 79 79 41